Orbital Elements at Epoch 2459000.5 (2020-May-31.0) TDB
Reference: JPL 19 (heliocentric ecliptic J2000)
Element | Value | Uncertainty (1-sigma) | Units |
e | .148776202216851 | 3.1336e-08 | |
a | 2.61671593444015 | 1.0541e-08 | au |
q | 2.227410875433826 | 8.2352e-08 | au |
i | 13.18079026364202 | 5.9601e-06 | deg |
node | 41.23875472113758 | 1.4227e-05 | deg |
peri | 277.6114325895797 | 2.5388e-05 | deg |
M | 18.96204450854909 | 2.0107e-05 | deg |
tp | 2458919.064089518726 (2020-Mar-10.56408952) | 8.639e-05 | TDB |
period | 1546.084746296258 4.23 | 9.3421e-06 2.558e-08 | d yr |
n | .2328462271310822 | 1.407e-09 | deg/d |
Q | 3.006020993446474 | 1.2109e-08 | au |
|
| | Orbit Determination Parameters
Additional Information
|